OneWeb SL0492

operational
NORAD ID: 54114 Int'l Des: 2022-138 Owner: ONEWEBN Country: UK Constellation: oneweb
LEOCIRCULARPOLARONEWEB_TYPE

关于 OneWeb SL0492

正在加载描述...

实时位置

正在加载3D地球...

即将过境

高度历史

Altitude vs Time

uPlot chart will show altitude changes over time

两行轨道根数

1 54114U 22138B 25261.28083235 .00000059 00000-0 11557-3 0 9994
2 54114 87.9284 359.0434 0001770 105.8990 254.2337 13.19726015140972
Epoch: Sep 18, 2025 • Age: 4 hours

当前状态

高度 1191.8 km
速度 7.26 km/s
星下点 46.62°N, 13.41°E
发射日期 Oct 22, 2022
运行时间 2.9 years
类型 internet

技术详情

分类 Payload
质量 148.00 kg
干质量 140.00 kg
总质量 148.00 kg
长度 1.30 m
直径 1.00 m
跨度 5.00 m
形状 Trapezoid+2 pan
制造商 ONEWUS
平台类型 ARROW
阶段状态 In Orbit
所有者/国家 ONEWEBN/UK

大型星座

Loading constellations...